GW2134 Weather Reports


Display with metric or nautical units.
time (UTC)temp
F
wind
direction
speed
MPH
gust
MPH
rain 1hr
in
rain 24hr
in
rain mn
in
humidity
%
barometer
mb
20260902191559 66 323 3.0 5.0 0.00 0.40 0.40 88 1022.7
20260902190056 66 323 2.0 5.0 0.00 0.39 0.39 88 1022.6
20260902184559 66 347 0.0 5.0 0.00 0.39 0.39 89 1022.5
20260902183059 65 343 3.0 6.0 0.08 0.39 0.39 88 1022.6
20260902181602 67 355 1.0 5.0 0.39 0.39 0.39 88 1022.4
20260902180142 67 360 2.0 4.0 0.39 0.39 0.39 87 1022.3
20260902174600 67 331 3.0 9.0 0.39 0.39 0.39 83 1022.6
20260902173054 71 355 10.0 18.0 0.29 0.29 0.29 76 1023.1
20260902171558 77 344 2.0 4.0 0.00 0.00 0.00 68 1022.3
20260902164603 79 355 2.0 4.0 0.00 0.00 0.00 62 1022.2
20260902163105 79 170 2.0 5.0 0.00 0.00 0.00 59 1022.1
20260902161606 80 0 0.0 2.0 0.00 0.00 0.00 58 1022.3
20260902154556 80 336 1.0 5.0 0.00 0.00 0.00 56 1022.5
20260902153058 80 136 3.0 11.0 0.00 0.00 0.00 57 1022.5
20260902151601 81 64 1.0 5.0 0.00 0.00 0.00 57 1022.3
20260902144600 80 0 1.0 8.0 0.00 0.00 0.00 58 1022.5
20260902143106 82 136 2.0 9.0 0.00 0.00 0.00 55 1022.2
20260902141558 83 0 0.0 2.0 0.00 0.00 0.00 53 1022.3
20260902134558 85 142 3.0 14.0 0.00 0.00 0.00 49 1022.1
20260902133059 87 200 2.0 11.0 0.00 0.00 0.00 45 1022.4
20260902131555 86 0 1.0 11.0 0.00 0.00 0.00 46 1022.5
20260902130059 86 123 4.0 12.0 0.00 0.00 0.00 47 1022.6
20260902124602 86 0 0.0 5.0 0.00 0.00 0.00 45 1022.7
20260902123059 86 163 2.0 8.0 0.00 0.00 0.00 43 1022.8
20260902121607 86 125 4.0 14.0 0.00 0.00 0.00 43 1022.9
20260902120052 87 0 3.0 8.0 0.00 0.00 0.00 42 1023.0
20260902114558 85 106 1.0 5.0 0.00 0.00 0.00 44 1023.3
20260902113105 85 125 2.0 8.0 0.00 0.00 0.00 44 1023.3
20260902111557 84 158 2.0 11.0 0.00 0.00 0.00 45 1023.4
20260902110056 85 139 0.0 8.0 0.00 0.00 0.00 42 1023.5
20260902104601 84 117 5.0 12.0 0.00 0.00 0.00 43 1023.5
20260902103103 83 129 2.0 10.0 0.00 0.00 0.00 45 1023.6
20260902101607 83 168 4.0 11.0 0.00 0.00 0.00 50 1023.8
20260902100105 82 190 4.0 9.0 0.00 0.00 0.00 53 1023.9
20260902094601 82 169 2.0 9.0 0.00 0.00 0.00 54 1024.0
20260902093105 82 170 3.0 7.0 0.00 0.00 0.00 54 1024.1
20260902091603 81 113 2.0 5.0 0.00 0.00 0.00 55 1024.2
20260902090100 81 121 2.0 7.0 0.00 0.00 0.00 56 1024.2
20260902084601 80 108 2.0 5.0 0.00 0.00 0.00 56 1024.2
20260902083058 80 0 0.0 6.0 0.00 0.00 0.00 57 1024.0
20260902081602 79 128 1.0 3.0 0.00 0.00 0.00 57 1023.8
20260902080056 78 113 1.0 3.0 0.00 0.00 0.00 58 1023.8
20260902074600 77 0 0.0 3.0 0.00 0.00 0.00 60 1023.6
20260902073102 76 0 1.0 3.0 0.00 0.00 0.00 62 1023.6
20260902071606 74 0 1.0 4.0 0.00 0.00 0.00 63 1023.3
20260902070058 73 0 0.0 2.0 0.00 0.00 0.00 66 1023.3
20260902064606 71 44 0.0 2.0 0.00 0.00 0.00 68 1023.3
20260902063100 70 0 0.0 1.0 0.00 0.00 0.00 70 1023.3
20260902060109 68 0 0.0 1.0 0.00 0.00 0.00 74 1023.2
20260902054600 67 0 0.0 0.0 0.00 0.00 0.00 75 1023.1
20260902053114 66 0 0.0 1.0 0.00 0.00 0.00 76 1023.0
20260902051600 66 43 0.0 2.0 0.00 0.00 0.00 77 1022.9
20260902050107 65 0 0.0 1.0 0.00 0.00 0.00 73 1022.9
20260902044606 66 0 0.0 1.0 0.00 0.00 0.00 75 1023.0
20260902043106 66 0 0.0 1.0 0.00 0.00 0.00 75 1022.9
20260902041604 66 0 0.0 1.0 0.00 0.00 0.00 75 1022.9
20260902040056 66 0 0.0 3.0 0.00 0.00 0.00 75 1022.8
20260902034557 66 0 0.0 2.0 0.00 0.00 0.00 73 1022.9
20260902033100 66 0 0.0 2.0 0.00 0.00 0.00 72 1022.8
20260902031602 66 0 0.0 1.0 0.00 0.00 0.00 72 1023.0
20260902030055 66 0 0.0 0.0 0.00 0.00 0.00 71 1023.0
20260902024553 66 0 0.0 0.0 0.00 0.00 0.00 72 1023.0
20260902023100 66 0 0.0 0.0 0.00 0.00 0.00 72 1023.1
20260902021601 66 0 0.0 2.0 0.00 0.00 0.00 72 1023.0
20260902020106 66 0 0.0 0.0 0.00 0.00 0.00 73 1023.1
20260902014555 66 0 0.0 0.0 0.00 0.00 0.00 74 1023.1
20260902013059 66 0 0.0 0.0 0.00 0.00 0.00 73 1023.2
20260902011601 67 360 0.0 1.0 0.00 0.00 0.00 73 1023.2
20260902010106 67 360 0.0 1.0 0.00 0.00 0.00 71 1023.3
20260902004602 67 0 0.0 1.0 0.00 0.00 0.00 71 1023.2
20260902003054 67 0 0.0 0.0 0.00 0.00 0.00 71 1023.1
20260902001625 67 0 0.0 2.0 0.00 0.00 0.00 71 1023.1
20260902000103 67 0 0.0 0.0 0.00 0.00 0.00 70 1023.1
20260901234555 67 360 0.0 2.0 0.00 0.00 0.00 70 1023.1
20260901233102 67 0 0.0 1.0 0.00 0.00 0.00 72 1023.1
20260901231602 68 0 0.0 1.0 0.00 0.00 0.00 72 1023.1
20260901230101 68 0 0.0 1.0 0.00 0.00 0.00 73 1023.1
20260901224606 68 360 0.0 1.0 0.00 0.00 0.00 71 1023.1
20260901223103 68 0 0.0 1.0 0.00 0.00 0.00 73 1023.1
20260901221600 69 0 0.0 1.0 0.00 0.00 0.00 73 1023.2
20260901220134 69 360 1.0 3.0 0.00 0.00 0.00 73 1023.1
20260901214604 69 360 2.0 3.0 0.00 0.00 0.00 73 1023.1
20260901213122 69 0 0.0 2.0 0.00 0.00 0.00 73 1022.9
20260901211554 69 0 0.0 3.0 0.00 0.00 0.00 73 1022.9
20260901210117 70 360 2.0 3.0 0.00 0.00 0.00 72 1022.8
20260901204558 70 0 2.0 3.0 0.00 0.00 0.00 72 1022.7
20260901203058 71 0 0.0 3.0 0.00 0.00 0.00 72 1022.8
20260901201554 71 360 3.0 4.0 0.00 0.00 0.00 71 1022.7
20260901200058 71 0 1.0 4.0 0.00 0.00 0.00 70 1022.8
20260901194559 72 360 0.0 2.0 0.00 0.00 0.00 68 1022.9
20260901193106 72 0 0.0 3.0 0.00 0.00 0.00 68 1022.9